Weather History for Poplar Bluff, MO

Change the Weather History Date:

Tuesday, December 18, 2012

  Actual Average Record
Temperature  
Mean Temperature 42 °F -  
Max Temperature 57 °F 44 °F 70 °F (1939)
Min Temperature 28 °F 23 °F 4 °F (1932)
Degree Days  
Heating Degree Days 22    
Moisture  
Dew Point 33 °F    
Average Humidity 84    
Maximum Humidity 100    
Minimum Humidity 53    
Precipitation  
Precipitation 0.00 in - - ()
Sea Level Pressure  
Sea Level Pressure 29.86 in    
Wind  
Wind Speed 2 mph (SSW)    
Max Wind Speed 15 mph    
Max Gust Speed 24 mph    
Visibility 5 miles    
Events Fog    
Averages and records for this station are not official NWS values.
T = Trace of Precipitation, MM = Missing Value Source: NWS Daily Summary

Daily Weather History Graph

Daily Weather History Graph

Search for Another Location

Airport:

Trip Planner

Search our weather history database for the weather conditions in past years. The results will help you decide how hot, cold, wet, or windy it might be!

Date:

Astronomy

Dec. 18, 2012 Rise Set
Actual Time 7:08 AM CST 4:47 PM CST
Civil Twilight 6:39 AM CST 5:16 PM CST
Nautical Twilight 6:07 AM CST 5:49 PM CST
Astronomical Twilight 5:35 AM CST 6:20 PM CST
Moon 10:56 AM CST (12/18) 11:04 PM CST (12/18)
Length of Visible Light 10h 36m
Length of Day
9h 38m
Waxing Crescent, 35% of the Moon is Illuminated
Dec 18
Waxing Crescent
Dec 19
First Quarter
Dec 28
Full
Jan 4
Last Quarter
Jan 11
New

Hourly Weather History & Observations

Time (CST) Temp. Windchill Dew Point Humidity Pressure Visibility Wind Dir Wind Speed Gust Speed Precip Events Conditions
12:53 AM 36.0 °F 33.3 °F 33.1 °F 89% 29.86 in 8.0 mi WSW 3.5 mph - N/A   Clear
1:53 AM 33.1 °F - 30.9 °F 92% 29.86 in 3.0 mi Calm Calm - N/A   Clear
2:12 AM 30.2 °F - 28.4 °F 93% 29.85 in 2.0 mi Calm Calm - N/A   Clear
2:22 AM 30.2 °F - 28.4 °F 93% 29.86 in 5.0 mi Calm Calm - N/A   Clear
2:53 AM 30.9 °F - 28.0 °F 89% 29.87 in 7.0 mi Calm Calm - N/A   Clear
3:53 AM 30.0 °F - 27.0 °F 88% 29.87 in 6.0 mi Calm Calm - N/A   Clear
4:14 AM 30.2 °F - 28.4 °F 93% 29.86 in 2.0 mi Calm Calm - N/A   Mostly Cloudy
4:21 AM 30.2 °F - 28.4 °F 93% 29.86 in 1.0 mi Calm Calm - N/A   Mist
4:33 AM 30.2 °F - 28.4 °F 93% 29.86 in 0.8 mi Calm Calm - N/A   Mist
4:53 AM 28.9 °F - 27.0 °F 92% 29.87 in 0.5 mi Calm Calm - N/A Fog Light Freezing Fog
5:06 AM 30.2 °F - 28.4 °F 93% 29.85 in 0.2 mi Calm Calm - N/A Fog Light Freezing Fog
5:53 AM 28.9 °F - 27.0 °F 92% 29.87 in 0.2 mi Calm Calm - N/A Fog Light Freezing Fog
6:13 AM 28.4 °F - 26.6 °F 93% 29.86 in 0.5 mi Calm Calm - N/A Fog Light Freezing Fog
6:37 AM 28.4 °F - 26.6 °F 93% 29.86 in 0.2 mi Calm Calm - N/A Fog Light Freezing Fog
6:46 AM 28.4 °F - 26.6 °F 93% 29.86 in 0.5 mi Calm Calm - N/A Fog Light Freezing Fog
6:53 AM 28.9 °F - 27.0 °F 92% 29.87 in 0.2 mi Calm Calm - N/A Fog Light Freezing Fog
7:53 AM 28.9 °F - 28.0 °F 96% 29.88 in 0.5 mi Calm Calm - N/A Fog Light Freezing Fog
8:07 AM 30.2 °F - 26.6 °F 86% 29.87 in 0.2 mi Calm Calm - N/A Fog Light Freezing Fog
8:53 AM 33.1 °F - 33.1 °F 100% 29.89 in 1.5 mi Calm Calm - N/A   Mostly Cloudy
9:01 AM 33.8 °F 30.8 °F 33.8 °F 100% 29.88 in 2.5 mi SSW 3.5 mph - N/A   Mostly Cloudy
9:08 AM 35.6 °F - 33.8 °F 93% 29.88 in 3.0 mi Calm Calm - N/A   Scattered Clouds
9:53 AM 42.1 °F 36.6 °F 37.9 °F 85% 29.89 in 7.0 mi South 9.2 mph - N/A   Clear
10:53 AM 48.9 °F - 39.9 °F 71% 29.88 in 9.0 mi South 6.9 mph - N/A   Clear
11:53 AM 53.1 °F - 41.0 °F 64% 29.85 in 10.0 mi SSW 12.7 mph - N/A   Clear
12:53 PM 55.9 °F - 41.0 °F 57% 29.81 in 10.0 mi SSW 10.4 mph - N/A   Clear
1:53 PM 57.9 °F - 42.1 °F 56% 29.80 in 10.0 mi SSW 12.7 mph - N/A   Clear
2:53 PM 57.9 °F - 41.0 °F 53% 29.80 in 10.0 mi SSW 15.0 mph 24.2 mph N/A   Clear
3:53 PM 57.0 °F - 43.0 °F 59% 29.80 in 10.0 mi SW 9.2 mph - N/A   Clear
4:53 PM 53.1 °F - 42.1 °F 66% 29.81 in 10.0 mi SW 4.6 mph - N/A   Clear
5:53 PM 48.9 °F - 41.0 °F 74% 29.82 in 10.0 mi SSW 5.8 mph - N/A   Clear
6:53 PM 48.0 °F - 39.9 °F 74% 29.83 in 10.0 mi South 5.8 mph - N/A   Clear
7:53 PM 48.9 °F - 39.9 °F 71% 29.86 in 10.0 mi SSW 5.8 mph - N/A   Clear
8:53 PM 45.0 °F - 39.0 °F 80% 29.87 in 10.0 mi Calm Calm - N/A   Clear
9:53 PM 39.0 °F - 37.0 °F 93% 29.88 in 9.0 mi Calm Calm - N/A   Clear
10:53 PM 39.0 °F - 36.0 °F 89% 29.88 in 9.0 mi Calm Calm - N/A   Clear
11:53 PM 37.0 °F - 35.1 °F 93% 29.90 in 8.0 mi Calm Calm - N/A   Clear